Temperature
5 5 5 5 5 4 4 4 5 6 6 7 7 7 7 7 7 7 7 7 7 7 7 7 7 7 7 7 7 7 6 6 6 6 6 7 7 7 7 7 7 7 7 7
4 4 4 4 5 5 5 5 5 5 6 7 6 6 6 6 6 6 6 7 7 6 6 6 6 6 6 6 6 6 6 6 6 6 6 6 6 6 6 6 6 6 6 7
3 4 4 4 4 5 5 4 5 5 6 6 5 5 5 6 6 6 6 6 6 6 6 6 5 5 5 5 5 5 5 5 5 5 5 5 5 5 5 5 6 6 6 6
3 3 3 5 5 5 5 5 5 5 5 5 5 5 6 6 6 6 5 5 5 5 5 5 5 5 5 5 5 4 4 4 4 4 4 5 5 5 5 5 5 5 5 5
3 3 3 4 5 4 4 4 5 5 5 5 5 4 5 6 6 5 5 5 5 5 4 4 4 4 4 4 4 4 4 3 3 3 3 4 4 4 4 4 4 4 4 4
3 3 3 5 5 5 5 4 4 4 4 4 4 3 4 6 5 5 5 5 4 4 4 4 3 3 3 3 3 3 3 3 3 3 3 3 3 3 3 3 3 3 3 4
3 3 4 4 5 5 4 5 5 5 4 4 3 4 5 5 4 4 4 4 4 3 3 3 3 2 2 2 2 2 2 2 2 2 2 2 2 2 2 2 2 3 3 3
3 3 4 4 3 4 5 5 6 5 5 5 5 4 4 4 4 4 3 3 3 3 2 2 2 2 1 2 2 1 1 1 1 2 2 2 2 2 2 2 2 2 2 2
3 4 4 5 5 6 6 5 5 5 5 4 4 4 3 3 3 3 3 2 2 2 1 1 1 1 1 1 1 1 1 1 1 1 1 1 1 1 1 1 1 1 1 1
2 2 3 4 5 6 6 5 5 5 4 4 3 3 3 2 2 2 2 2 1 1 1 1 0 0 0 0 0 -0 -0 0 0 0 0 0 0 0 0 0 0 0 0 0
1 2 2 4 5 5 5 5 4 4 4 3 3 2 2 2 2 1 1 1 1 0 -0 -0 -0 -0 -1 -1 -1 -1 -1 -1 -1 -1 -1 -1 -1 -1 -1 -1 -0 -0 -0 -0
3 3 2 3 5 5 4 4 3 3 3 3 2 2 1 1 1 0 0 -0 -0 -1 -1 -1 -1 -1 -1 -1 -2 -2 -2 -2 -2 -2 -2 -2 -2 -1 -1 -1 -1 -1 -1 -1
4 4 4 4 4 3 3 3 3 2 2 1 1 1 0 0 -0 -0 -1 -1 -1 -1 -1 -2 -2 -2 -2 -2 -2 -3 -3 -3 -3 -3 -3 -3 -3 -2 -2 -2 -2 -1 -1 -1
3 3 2 3 3 2 2 2 2 1 1 1 0 0 -0 -0 -1 -1 -1 -1 -2 -2 -2 -2 -2 -2 -2 -3 -3 -3 -3 -3 -3 -3 -3 -3 -3 -3 -3 -3 -3 -2 -2 -2
2 2 2 2 2 2 1 1 1 0 0 -0 -0 -1 -1 -1 -1 -2 -2 -2 -2 -2 -2 -3 -3 -3 -3 -4 -4 -4 -4 -4 -4 -4 -4 -4 -4 -3 -3 -3 -3 -3 -3 -2
1 1 1 1 1 1 0 0 -0 -0 -1 -1 -1 -1 -1 -2 -2 -2 -2 -3 -3 -3 -3 -3 -3 -4 -4 -4 -4 -4 -4 -4 -4 -4 -4 -4 -4 -4 -4 -4 -4 -4 -3 -3
0 -0 -0 -0 -0 -0 -0 -1 -1 -1 -1 -2 -2 -2 -2 -2 -3 -3 -3 -3 -3 -3 -4 -4 -4 -4 -4 -4 -5 -5 -5 -4 -4 -4 -4 -4 -4 -4 -4 -4 -4 -4 -4 -4
-0 -0 -1 -1 -1 -1 -1 -1 -1 -2 -2 -2 -3 -3 -3 -3 -3 -3 -3 -4 -4 -4 -4 -4 -5 -5 -5 -5 -5 -5 -5 -5 -5 -5 -5 -5 -5 -5 -5 -5 -4 -4 -4 -4
-1 -1 -1 -1 -1 -2 -2 -2 -2 -2 -3 -3 -3 -3 -3 -4 -4 -4 -4 -4 -5 -5 -5 -5 -5 -5 -5 -5 -5 -5 -5 -5 -5 -5 -5 -5 -5 -5 -5 -5 -5 -5 -5 -5
-2 -2 -2 -2 -2 -2 -2 -3 -3 -3 -3 -3 -4 -4 -4 -4 -4 -5 -5 -5 -5 -6 -6 -6 -6 -6 -5 -5 -5 -5 -6 -6 -5 -5 -6 -6 -6 -6 -5 -5 -5 -5 -5 -5
-2 -2 -3 -3 -3 -3 -3 -3 -3 -4 -4 -4 -4 -4 -4 -5 -5 -5 -6 -6 -6 -6 -6 -6 -6 -6 -6 -6 -6 -6 -6 -6 -6 -6 -6 -6 -6 -6 -6 -6 -6 -5 -5 -5
-3 -3 -3 -3 -4 -4 -4 -4 -4 -4 -4 -5 -5 -5 -5 -5 -6 -6 -6 -6 -6 -7 -7 -7 -7 -7 -6 -6 -6 -6 -6 -6 -6 -6 -7 -7 -6 -6 -6 -6 -6 -6 -6 -6
-4 -4 -4 -4 -4 -5 -5 -5 -5 -5 -5 -6 -6 -6 -6 -6 -6 -7 -7 -7 -7 -7 -7 -7 -7 -7 -7 -7 -7 -7 -7 -7 -7 -7 -7 -7 -7 -7 -7 -6 -6 -6 -6 -6
-5 -5 -5 -5 -5 -5 -5 -6 -6 -6 -6 -6 -6 -7 -7 -7 -7 -7 -7 -7 -7 -7 -7 -7 -7 -7 -7 -7 -7 -7 -7 -7 -7 -7 -7 -7 -7 -7 -7 -7 -7 -7 -7 -6
-5 -5 -6 -6 -6 -6 -6 -6 -6 -6 -7 -7 -7 -7 -7 -8 -8 -8 -8 -8 -8 -8 -8 -8 -8 -8 -8 -8 -7 -7 -7 -8 -8 -8 -8 -8 -8 -7 -7 -7 -7 -7 -7 -7
-6 -6 -6 -6 -7 -7 -7 -7 -7 -7 -7 -7 -8 -8 -8 -8 -8 -8 -8 -8 -8 -8 -8 -8 -8 -8 -8 -8 -8 -8 -8 -8 -8 -8 -8 -8 -8 -8 -7 -7 -7 -7 -7 -7
-7 -7 -7 -7 -7 -7 -7 -8 -8 -8 -8 -8 -8 -8 -8 -8 -8 -8 -8 -8 -8 -8 -8 -8 -8 -8 -8 -8 -8 -8 -8 -8 -8 -8 -8 -8 -8 -8 -8 -8 -7 -7 -7 -7
Wind_Speed
9 7 6 9 11 10 12 12 13 14 16 18 14 12 10 8 8 8 9 9 8 8 7 7 8 8 7 7 6 6 6 6 7 7 7 6 6 6 6 6 7 6 7 7
6 7 9 12 14 15 16 14 16 18 21 17 11 7 7 8 8 9 9 9 8 7 7 7 8 8 8 7 7 6 6 6 6 7 7 6 6 6 6 6 6 6 6 7
5 4 4 11 13 15 11 10 11 15 15 8 7 7 7 7 7 8 9 8 8 7 7 8 7 7 7 7 7 6 6 7 7 7 7 7 7 6 6 6 6 6 6 6
3 1 10 9 6 8 10 12 12 11 10 8 9 7 6 7 7 8 8 8 7 6 7 7 6 7 6 6 6 6 7 7 8 7 7 7 6 6 6 6 6 6 6 6
4 6 10 8 6 7 8 9 9 11 10 8 5 5 6 5 5 7 8 7 6 6 5 5 6 7 6 6 6 6 7 8 8 8 8 8 7 6 6 5 5 6 5 5
6 6 8 8 4 4 3 6 6 6 6 5 1 4 6 5 5 6 7 6 5 5 5 5 6 6 6 7 7 7 8 8 8 8 7 7 7 7 5 5 5 5 5 5
11 9 9 8 4 5 5 7 3 4 5 5 5 7 7 7 7 6 6 6 5 4 5 6 6 5 6 7 7 8 8 8 8 8 7 7 6 6 6 5 4 5 5 5
8 9 11 6 7 8 8 3 4 4 5 6 7 7 7 7 7 6 5 5 5 4 6 6 5 5 6 7 7 8 8 8 8 8 7 6 5 5 5 5 5 5 5 5
10 10 5 6 8 6 4 5 5 5 6 6 7 7 7 6 6 6 5 5 5 5 6 6 5 4 6 7 7 7 7 7 8 7 6 5 5 5 5 4 4 4 4 5
7 9 8 7 6 6 5 6 6 6 6 5 7 7 7 6 6 6 5 5 5 5 6 7 6 5 6 6 6 6 7 7 7 6 6 6 5 4 4 4 4 4 4 5
8 9 7 8 8 8 6 5 5 5 5 5 6 6 6 6 6 5 6 5 5 5 7 8 7 6 6 6 6 6 7 7 6 6 6 6 5 4 4 4 4 5 4 4
11 8 7 7 5 4 5 5 5 5 5 4 4 6 6 6 5 5 5 5 5 6 7 7 6 7 6 5 5 6 6 6 5 5 5 5 5 5 6 6 8 9 8 7
11 8 7 7 6 5 5 5 5 4 5 5 5 5 5 6 5 5 5 5 6 6 6 6 6 7 6 6 5 5 6 6 5 5 5 5 5 5 6 7 8 8 9 9
9 7 7 7 7 5 4 4 3 3 3 4 4 4 4 5 4 4 5 5 5 5 5 6 6 7 6 6 6 6 5 6 5 4 4 4 4 4 4 5 6 6 7 9
7 7 8 5 3 3 3 2 3 4 3 3 3 3 3 4 5 5 5 4 4 4 5 5 6 7 6 6 6 6 5 4 4 4 4 4 4 4 4 4 4 5 6 7
5 4 4 4 5 5 4 4 5 5 4 4 3 3 4 4 4 4 3 3 4 5 6 6 7 7 6 5 5 5 4 6 6 4 3 4 3 3 4 4 4 4 5 5
4 5 5 5 6 6 5 5 5 5 4 3 4 3 3 2 2 3 4 4 4 5 6 6 7 6 5 5 4 4 4 5 6 4 3 3 3 3 3 3 4 4 5 6
4 5 5 5 5 5 4 3 3 3 3 3 2 2 1 2 3 4 5 4 4 5 5 5 6 6 5 4 4 3 3 3 3 3 3 3 3 3 3 3 4 4 4 5
1 1 2 2 3 3 2 2 2 2 2 1 1 1 2 2 3 4 4 4 4 6 6 6 8 6 5 6 5 3 3 3 3 3 3 4 4 3 3 3 4 4 4 4
1 1 1 1 1 1 1 1 1 1 1 1 1 1 2 3 3 3 3 4 4 4 5 7 6 5 5 5 6 3 3 3 3 3 3 3 3 3 3 3 3 4 4 4
1 2 1 1 1 1 1 0 0 1 1 1 1 2 2 3 3 3 3 4 5 5 5 8 5 5 5 5 5 3 2 2 3 3 3 3 3 3 3 3 3 4 4 4
1 1 1 1 1 2 2 1 1 1 1 1 1 1 2 3 3 3 3 4 5 7 5 4 4 6 7 7 3 2 3 3 3 2 2 3 3 3 3 3 3 3 3 3
1 1 1 1 0 1 2 2 1 1 1 1 2 2 2 3 3 3 5 4 4 7 6 4 7 9 9 5 3 3 3 3 3 3 3 3 3 3 3 3 3 3 3 3
1 1 1 1 1 1 2 2 2 1 1 2 2 2 2 3 3 3 3 6 8 8 5 7 9 9 7 3 2 3 3 3 2 2 2 2 2 2 2 3 3 3 3 3
1 1 1 1 1 1 1 2 2 2 2 2 2 3 2 2 3 4 4 4 7 7 5 7 9 8 5 3 3 3 3 2 2 2 2 2 2 2 2 2 2 2 2 2
0 0 0 1 1 1 1 1 1 2 2 2 3 3 2 2 3 3 3 4 5 6 5 4 5 5 3 3 3 3 3 3 3 2 2 2 2 2 2 2 2 2 2 2
1 1 1 1 1 1 1 1 1 2 2 2 3 3 3 3 3 3 4 4 4 4 4 4 3 3 3 3 3 3 3 2 2 2 2 2 2 2 2 2 2 2 2 1
Wind_Direction
248 251 242 242 243 224 223 227 239 255 259 268 274 279 281 281 287 295 299 303 306 307 309 315 318 320 319 316 316 314 311 308 304 304 303 302 298 295 293 291 285 279 271 263
259 248 248 259 251 243 241 239 243 258 266 268 273 271 269 272 279 287 292 295 299 302 304 307 310 314 316 318 317 315 310 305 306 309 309 306 300 297 296 291 290 282 278 266
256 255 288 261 237 230 226 220 220 243 255 269 272 268 264 268 277 282 287 291 294 295 293 297 304 307 309 310 314 317 315 315 314 312 311 305 302 300 296 293 294 287 277 274
246 199 246 249 210 211 229 245 232 241 256 259 261 270 265 260 267 278 282 286 289 293 298 303 308 310 309 313 316 317 318 320 321 318 315 310 305 297 292 291 289 285 281 279
204 237 269 280 242 198 210 254 235 236 254 264 277 307 286 265 259 263 273 278 278 284 293 305 313 315 318 319 321 323 324 324 322 320 317 315 312 304 300 297 292 291 291 289
208 226 247 250 230 178 146 265 244 218 238 254 286 298 283 289 291 285 287 289 290 301 307 309 311 318 320 318 322 322 319 317 315 313 312 312 310 308 309 303 298 302 302 297
225 237 256 248 207 135 189 243 230 199 215 219 219 240 266 289 292 287 289 293 301 308 309 308 314 323 317 317 315 315 317 316 315 315 314 310 311 312 312 312 314 311 308 308
204 227 248 208 151 187 221 218 208 221 226 236 247 264 278 286 289 294 298 299 304 308 305 307 313 317 311 309 312 318 320 319 318 317 318 319 314 314 317 321 323 318 318 319
203 223 241 189 201 220 207 216 226 230 241 245 258 271 281 286 287 290 292 297 304 303 304 307 311 309 302 308 318 320 321 320 319 318 319 317 313 315 319 321 322 320 317 315
240 255 253 249 254 258 239 236 244 244 249 249 259 272 280 285 288 292 295 298 304 307 305 307 313 311 302 310 318 318 318 319 320 320 323 325 322 320 320 320 321 321 321 317
244 260 277 265 245 246 250 252 260 264 253 251 261 271 275 282 285 291 296 298 301 301 300 302 311 313 315 321 325 323 320 318 321 325 324 327 330 326 320 314 315 318 313 306
240 232 221 242 238 227 234 251 257 266 277 273 255 264 274 278 281 286 291 296 300 299 300 303 310 312 317 321 322 320 319 319 319 322 322 326 330 333 335 332 335 336 333 325
240 244 235 250 260 253 247 254 254 251 254 270 272 261 266 274 279 282 287 293 294 296 300 305 309 309 314 317 315 309 307 310 312 315 318 322 324 327 330 340 345 345 345 343
241 244 256 255 254 254 243 247 253 260 260 258 268 272 271 277 283 287 290 293 296 300 305 307 307 307 311 312 310 307 306 306 310 309 314 316 317 318 320 326 333 336 341 344
239 229 234 242 248 254 249 241 253 264 268 273 273 278 279 279 282 287 295 305 309 308 309 310 307 305 310 311 310 309 309 309 309 310 312 314 317 319 321 323 325 326 332 340
230 230 231 237 246 253 252 237 240 257 263 267 276 281 279 276 283 296 305 311 311 305 306 306 302 301 306 310 311 310 309 312 319 317 318 324 328 330 329 327 327 328 330 332
217 235 233 238 242 247 245 241 238 245 253 262 273 284 293 301 308 311 312 310 300 292 296 299 301 305 306 306 306 306 308 309 317 320 320 319 321 322 322 324 326 325 327 333
220 229 229 229 232 239 248 243 235 243 256 265 277 286 287 288 293 300 307 314 316 312 308 308 308 311 311 312 311 307 307 309 315 314 314 316 319 321 322 322 322 325 329 335
261 245 246 231 221 209 221 238 250 262 276 273 272 276 279 282 289 296 305 313 315 314 317 319 324 328 318 314 319 311 311 311 312 312 312 315 324 325 323 321 323 327 329 332
37 38 56 45 58 135 188 249 259 287 290 265 255 290 303 303 304 305 307 302 295 294 303 316 322 322 319 312 319 312 307 304 306 313 315 315 316 318 319 321 324 326 327 330
23 29 43 45 33 25 4 295 253 294 307 286 246 271 287 301 307 305 305 306 307 312 318 323 329 322 317 318 321 319 315 312 310 311 311 312 315 318 321 325 326 325 326 329
28 44 46 54 54 7 358 12 25 356 343 332 309 295 301 309 315 311 292 283 297 317 324 319 318 320 324 326 331 330 324 320 316 314 313 311 312 315 320 323 324 323 324 326
17 33 43 39 50 353 5 12 8 1 326 303 298 295 291 292 295 297 303 306 309 319 325 316 319 322 327 338 337 329 323 320 315 315 313 310 309 310 313 317 320 322 323 325
45 39 43 47 69 58 12 343 342 338 323 310 300 294 294 302 302 288 286 308 320 321 321 319 327 329 335 345 332 325 318 315 312 313 314 314 310 309 310 314 317 319 320 323
65 57 55 54 38 333 298 316 339 345 346 331 317 307 300 284 280 298 306 307 315 325 325 327 332 336 343 332 327 324 320 312 307 311 315 315 310 310 310 309 309 312 317 321
48 5 309 276 262 271 282 295 308 314 318 318 318 314 313 309 303 305 311 313 315 325 328 322 323 331 335 332 329 327 324 320 324 327 320 311 309 312 313 316 318 316 318 323
22 353 344 336 320 294 282 279 285 296 297 296 304 308 310 312 316 321 319 319 320 322 321 321 325 329 331 332 332 329 326 326 326 326 324 322 321 320 321 318 319 319 320 324
Height
1444 1443 1444 1443 1443 1445 1446 1443 1442 1430 1426 1417 1415 1415 1413 1412 1410 1409 1406 1404 1402 1399 1396 1394 1391 1387 1384 1381 1379 1376 1373 1370 1368 1365 1363 1360 1358 1357 1355 1354 1353 1351 1351 1350
1444 1441 1441 1439 1435 1435 1434 1433 1431 1426 1419 1411 1411 1411 1410 1409 1408 1405 1403 1401 1398 1396 1394 1391 1388 1385 1381 1378 1375 1372 1369 1366 1363 1361 1358 1355 1353 1351 1350 1348 1346 1345 1344 1344
1442 1439 1439 1435 1424 1423 1423 1420 1421 1419 1411 1408 1409 1408 1407 1405 1404 1402 1400 1397 1395 1393 1391 1388 1385 1382 1378 1375 1372 1368 1365 1362 1358 1356 1353 1351 1349 1346 1344 1342 1340 1339 1338 1337
1440 1441 1439 1418 1412 1413 1414 1411 1411 1409 1406 1406 1405 1403 1403 1402 1400 1398 1396 1394 1392 1390 1387 1385 1382 1379 1375 1372 1368 1365 1361 1358 1355 1352 1349 1346 1344 1341 1339 1337 1335 1333 1332 1331
1437 1437 1427 1416 1409 1409 1411 1408 1403 1403 1402 1402 1401 1401 1399 1398 1397 1395 1393 1391 1388 1386 1384 1381 1378 1375 1371 1368 1365 1361 1358 1354 1352 1349 1345 1342 1339 1337 1334 1332 1330 1329 1327 1326
1430 1431 1424 1409 1402 1401 1406 1407 1398 1398 1398 1399 1399 1402 1397 1394 1392 1391 1389 1387 1384 1382 1380 1377 1374 1371 1368 1364 1361 1358 1354 1351 1348 1346 1342 1339 1335 1332 1330 1328 1326 1324 1322 1321
1421 1421 1411 1401 1399 1402 1409 1401 1395 1394 1395 1395 1396 1395 1392 1390 1388 1387 1385 1383 1380 1378 1375 1373 1370 1367 1364 1360 1357 1354 1351 1348 1345 1341 1338 1335 1332 1329 1326 1324 1321 1320 1318 1316
1416 1415 1407 1394 1397 1399 1394 1390 1391 1390 1391 1391 1390 1389 1387 1386 1384 1382 1380 1378 1376 1374 1371 1369 1366 1363 1360 1356 1353 1350 1347 1344 1340 1337 1334 1331 1329 1326 1323 1320 1317 1316 1314 1312
1401 1396 1389 1388 1388 1387 1387 1387 1387 1387 1387 1387 1386 1384 1383 1381 1380 1378 1376 1374 1372 1370 1367 1365 1362 1360 1356 1353 1349 1346 1343 1340 1337 1334 1331 1328 1325 1323 1320 1317 1315 1313 1311 1309
1395 1388 1385 1384 1384 1384 1384 1384 1383 1383 1383 1382 1381 1380 1378 1377 1375 1373 1372 1370 1368 1365 1362 1360 1358 1355 1352 1349 1346 1342 1339 1336 1333 1330 1327 1324 1322 1320 1318 1315 1313 1311 1309 1307
1388 1383 1382 1379 1379 1379 1380 1380 1379 1379 1378 1377 1376 1375 1374 1372 1370 1369 1367 1365 1363 1361 1358 1356 1353 1351 1348 1345 1342 1338 1335 1332 1330 1327 1324 1321 1319 1318 1315 1313 1312 1310 1308 1306
1379 1376 1377 1374 1374 1375 1375 1375 1374 1374 1373 1372 1372 1370 1369 1367 1366 1364 1363 1361 1358 1356 1354 1351 1349 1346 1344 1341 1338 1335 1332 1329 1327 1324 1322 1319 1316 1314 1313 1312 1309 1307 1306 1304
1370 1370 1370 1369 1370 1370 1370 1369 1369 1369 1368 1367 1366 1366 1364 1363 1361 1360 1358 1356 1354 1352 1350 1347 1344 1342 1340 1337 1335 1332 1330 1327 1324 1322 1320 1317 1315 1312 1309 1308 1306 1305 1303 1301
1364 1365 1365 1364 1364 1364 1365 1364 1364 1364 1363 1363 1362 1361 1360 1358 1357 1356 1354 1352 1350 1348 1346 1343 1341 1338 1336 1334 1332 1329 1327 1324 1322 1320 1318 1315 1313 1311 1309 1306 1304 1301 1301 1299
1359 1359 1359 1359 1359 1359 1360 1360 1359 1359 1358 1358 1357 1356 1355 1354 1353 1351 1350 1348 1346 1344 1342 1339 1337 1335 1333 1331 1329 1326 1324 1322 1320 1318 1316 1314 1312 1310 1308 1306 1303 1301 1299 1298
1353 1354 1354 1354 1354 1355 1355 1355 1355 1354 1354 1353 1353 1352 1351 1350 1349 1348 1346 1345 1343 1340 1338 1336 1333 1331 1329 1327 1325 1323 1321 1320 1318 1316 1314 1312 1310 1308 1306 1305 1303 1301 1299 1297
1350 1349 1350 1350 1350 1350 1351 1351 1351 1350 1350 1349 1349 1348 1347 1346 1345 1344 1342 1341 1339 1337 1335 1333 1330 1328 1326 1324 1323 1321 1319 1317 1315 1314 1312 1310 1308 1307 1305 1303 1302 1300 1298 1297
1345 1346 1346 1346 1346 1346 1347 1347 1347 1347 1346 1346 1345 1345 1343 1342 1341 1340 1339 1337 1336 1334 1332 1330 1328 1326 1324 1322 1320 1318 1317 1315 1313 1312 1310 1308 1307 1305 1304 1302 1301 1299 1297 1296
1342 1342 1343 1343 1343 1343 1343 1343 1343 1343 1343 1343 1342 1341 1340 1339 1338 1337 1336 1334 1332 1330 1329 1327 1325 1323 1321 1319 1318 1316 1314 1312 1311 1309 1308 1307 1305 1304 1303 1301 1300 1298 1297 1295
1340 1340 1340 1340 1340 1341 1340 1341 1341 1340 1340 1340 1339 1338 1337 1336 1336 1334 1333 1331 1330 1328 1326 1324 1322 1320 1319 1317 1315 1313 1312 1310 1309 1307 1306 1305 1304 1302 1301 1300 1299 1298 1296 1295
1339 1339 1339 1339 1339 1339 1339 1338 1338 1338 1337 1337 1336 1335 1334 1334 1333 1332 1330 1328 1327 1326 1324 1322 1320 1318 1316 1315 1313 1311 1310 1308 1307 1306 1304 1303 1302 1301 1300 1299 1298 1297 1296 1295
1338 1338 1338 1337 1337 1337 1337 1336 1336 1335 1335 1334 1333 1333 1332 1331 1330 1329 1328 1327 1325 1323 1321 1319 1318 1316 1315 1313 1311 1309 1308 1306 1305 1304 1303 1302 1301 1300 1299 1298 1297 1296 1295 1294
1337 1337 1337 1337 1336 1335 1335 1335 1334 1333 1333 1332 1331 1330 1330 1329 1328 1326 1325 1324 1322 1320 1319 1317 1316 1314 1313 1311 1309 1308 1306 1305 1303 1302 1301 1300 1300 1299 1298 1297 1296 1295 1294 1293
1336 1336 1336 1335 1335 1334 1333 1333 1332 1332 1331 1330 1329 1329 1328 1326 1325 1324 1323 1321 1320 1318 1316 1315 1314 1312 1310 1309 1307 1306 1304 1303 1302 1301 1300 1299 1298 1297 1296 1296 1295 1294 1293 1293
1335 1335 1334 1334 1333 1333 1332 1331 1330 1330 1329 1328 1327 1327 1326 1325 1323 1322 1320 1319 1317 1316 1314 1313 1311 1310 1308 1307 1305 1304 1303 1301 1300 1299 1298 1297 1296 1296 1295 1294 1294 1293 1292 1292
1334 1333 1333 1332 1332 1331 1330 1329 1329 1328 1327 1326 1325 1324 1323 1322 1321 1320 1318 1317 1315 1314 1312 1311 1310 1308 1307 1305 1304 1303 1301 1300 1299 1298 1297 1296 1295 1294 1294 1293 1292 1292 1291 1291
1332 1331 1331 1330 1330 1329 1328 1328 1327 1326 1325 1324 1323 1322 1321 1320 1319 1317 1316 1315 1313 1312 1310 1309 1308 1306 1305 1304 1303 1301 1300 1299 1298 1297 1296 1295 1294 1293 1293 1292 1292 1291 1291 1291